• In Netherlands
  • List of Countries
  • For 7 days
  • Water Temperature
  • Satellite Maps
  • Weather Map
  • Weather Widgets
  • user-avatar
    Login

    Hourly Weather Abovyan

    Today, 27 May, Saturday

    Time Temperature Precipitation Wind Pressure Humidity
    00:00 +13°C° 0.3 mm 1 mps 669 mmHg 70%
    01:00 +12°C° 0.2 mm 1 mps 669 mmHg 71%
    02:00 +12°C° 0.2 mm 1 mps 669 mmHg 73%
    03:00 +11°C° 0 mm 1 mps 668 mmHg 74%
    04:00 +12°C° 0.1 mm 1 mps 668 mmHg 70%
    05:00 +14°C° 0.1 mm 1 mps 669 mmHg 66%
    06:00 +15°C° 0.1 mm 1 mps 669 mmHg 63%
    07:00 +18°C° 0.1 mm 1 mps 669 mmHg 56%
    08:00 +19°C° 0.1 mm 2 mps 670 mmHg 49%
    09:00 +21°C° 0 mm 2 mps 670 mmHg 40%
    10:00 +23°C° 0.2 mm 2 mps 670 mmHg 38%
    11:00 +25°C° 0.2 mm 3 mps 670 mmHg 35%
    12:00 +26°C° 0.2 mm 3 mps 669 mmHg 33%
    13:00 +26°C° 0.3 mm 3 mps 669 mmHg 35%
    14:00 +26°C° 0.3 mm 3 mps 669 mmHg 36%
    15:00 +25°C° 0 mm 3 mps 669 mmHg 39%
    16:00 +24°C° 0.5 mm 2 mps 669 mmHg 43%
    17:00 +24°C° 0.5 mm 2 mps 668 mmHg 48%
    18:00 +23°C° 0.5 mm 1 mps 668 mmHg 52%
    19:00 +20°C° 0.3 mm 1 mps 668 mmHg 58%
    20:00 +16°C° 0.3 mm 1 mps 668 mmHg 64%
    21:00 +14°C° 0.3 mm 1 mps 667 mmHg 70%
    22:00 +13°C° 0.1 mm 1 mps 668 mmHg 71%
    23:00 +13°C° 0.1 mm 1 mps 668 mmHg 72%

    Tomorrow, 28 May, Sunday

    Time Temperature Precipitation Wind Pressure Humidity
    00:00 +12°C° 0.1 mm 1 mps 668 mmHg 73%
    01:00 +12°C° 0 mm 1 mps 668 mmHg 73%
    02:00 +12°C° 0 mm 1 mps 668 mmHg 73%
    03:00 +11°C° 0 mm 1 mps 668 mmHg 74%
    04:00 +13°C° 0 mm 1 mps 669 mmHg 71%
    05:00 +14°C° 0 mm 1 mps 669 mmHg 68%
    06:00 +15°C° 0 mm 1 mps 670 mmHg 65%
    07:00 +19°C° 0 mm 1 mps 670 mmHg 56%
    08:00 +20°C° 0 mm 2 mps 670 mmHg 46%
    09:00 +23°C° 0 mm 2 mps 671 mmHg 37%
    10:00 +24°C° 0 mm 3 mps 671 mmHg 34%
    11:00 +25°C° 0 mm 3 mps 671 mmHg 31%
    12:00 +26°C° 0 mm 3 mps 671 mmHg 28%
    13:00 +26°C° 0 mm 4 mps 671 mmHg 27%
    14:00 +27°C° 0 mm 4 mps 671 mmHg 27%
    15:00 +27°C° 0 mm 5 mps 671 mmHg 27%
    16:00 +26°C° 0.1 mm 4 mps 670 mmHg 32%
    17:00 +25°C° 0.1 mm 4 mps 670 mmHg 37%
    18:00 +22°C° 0.1 mm 4 mps 670 mmHg 42%
    19:00 +19°C° 0.1 mm 3 mps 670 mmHg 50%
    20:00 +17°C° 0.1 mm 2 mps 670 mmHg 59%
    21:00 +14°C° 0.1 mm 1 mps 670 mmHg 67%
    22:00 +13°C° 0 mm 1 mps 671 mmHg 68%
    23:00 +13°C° 0 mm 1 mps 671 mmHg 69%

    Day after tomorrow, 29 May, Monday

    Time Temperature Precipitation Wind Pressure Humidity
    00:00 +12°C° 0 mm 1 mps 671 mmHg 70%
    01:00 +12°C° 0 mm 1 mps 671 mmHg 71%
    02:00 +11°C° 0 mm 1 mps 671 mmHg 71%
    03:00 +11°C° 0 mm 1 mps 671 mmHg 71%
    04:00 +13°C° 0 mm 1 mps 671 mmHg 68%
    05:00 +14°C° 0 mm 1 mps 672 mmHg 64%
    06:00 +16°C° 0 mm 1 mps 673 mmHg 61%
    07:00 +19°C° 0 mm 1 mps 673 mmHg 53%
    08:00 +21°C° 0 mm 1 mps 674 mmHg 45%
    09:00 +23°C° 0 mm 2 mps 674 mmHg 37%
    10:00 +24°C° 0.1 mm 2 mps 674 mmHg 35%
    11:00 +26°C° 0.1 mm 2 mps 674 mmHg 33%
    12:00 +27°C° 0.1 mm 3 mps 674 mmHg 30%
    13:00 +27°C° 0.1 mm 3 mps 674 mmHg 31%
    14:00 +27°C° 0.1 mm 3 mps 674 mmHg 31%
    15:00 +27°C° 0.1 mm 3 mps 673 mmHg 32%
    16:00 +26°C° 0.3 mm 2 mps 673 mmHg 36%
    17:00 +25°C° 0.3 mm 2 mps 673 mmHg 41%
    18:00 +25°C° 0.3 mm 1 mps 673 mmHg 46%
    19:00 +22°C° 0.2 mm 1 mps 673 mmHg 52%
    20:00 +19°C° 0.2 mm 2 mps 673 mmHg 58%
    21:00 +16°C° 0.2 mm 2 mps 673 mmHg 64%
    22:00 +16°C° 0.1 mm 2 mps 673 mmHg 67%
    23:00 +15°C° 0.1 mm 2 mps 673 mmHg 69%

    30 May, Tuesday

    Time Temperature Precipitation Wind Pressure Humidity
    00:00 +15°C° 0.1 mm 2 mps 673 mmHg 72%
    01:00 +14°C° 0 mm 2 mps 672 mmHg 73%
    02:00 +14°C° 0 mm 2 mps 672 mmHg 74%
    03:00 +14°C° 0 mm 1 mps 672 mmHg 75%
    04:00 +14°C° 0 mm 1 mps 673 mmHg 73%
    05:00 +15°C° 0 mm 1 mps 673 mmHg 70%
    06:00 +16°C° 0 mm 1 mps 673 mmHg 68%
    07:00 +19°C° 0 mm 2 mps 673 mmHg 56%
    08:00 +23°C° 0 mm 2 mps 674 mmHg 45%
    09:00 +25°C° 0 mm 2 mps 674 mmHg 33%
    10:00 +27°C° 0 mm 3 mps 674 mmHg 30%
    11:00 +28°C° 0 mm 3 mps 674 mmHg 27%
    12:00 +29°C° 0 mm 3 mps 674 mmHg 23%
    13:00 +29°C° 0 mm 4 mps 674 mmHg 24%
    14:00 +29°C° 0 mm 4 mps 673 mmHg 24%
    15:00 +30°C° 0 mm 4 mps 673 mmHg 24%
    16:00 +28°C° 0 mm 3 mps 673 mmHg 28%
    17:00 +27°C° 0 mm 3 mps 673 mmHg 33%
    18:00 +26°C° 0 mm 2 mps 673 mmHg 37%
    19:00 +23°C° 0 mm 2 mps 672 mmHg 45%
    20:00 +20°C° 0 mm 1 mps 672 mmHg 53%
    21:00 +16°C° 0 mm 1 mps 672 mmHg 62%
    22:00 +15°C° 0 mm 1 mps 672 mmHg 63%
    23:00 +14°C° 0 mm 1 mps 671 mmHg 63%

    31 May, Wednesday

    Time Temperature Precipitation Wind Pressure Humidity
    00:00 +14°C° 0 mm 1 mps 671 mmHg 64%
    01:00 +13°C° 0 mm 1 mps 671 mmHg 64%
    02:00 +13°C° 0 mm 1 mps 671 mmHg 64%
    03:00 +13°C° 0 mm 1 mps 671 mmHg 64%
    04:00 +14°C° 0 mm 1 mps 671 mmHg 60%
    05:00 +16°C° 0 mm 1 mps 672 mmHg 57%
    06:00 +19°C° 0 mm 1 mps 672 mmHg 54%
    07:00 +21°C° 0 mm 1 mps 672 mmHg 46%
    08:00 +24°C° 0 mm 2 mps 673 mmHg 38%
    09:00 +26°C° 0 mm 2 mps 673 mmHg 30%
    10:00 +27°C° 0 mm 2 mps 673 mmHg 29%
    11:00 +28°C° 0 mm 2 mps 672 mmHg 27%
    12:00 +30°C° 0 mm 3 mps 672 mmHg 26%
    13:00 +30°C° 0.1 mm 3 mps 672 mmHg 26%
    14:00 +30°C° 0.1 mm 3 mps 671 mmHg 27%
    15:00 +30°C° 0.1 mm 3 mps 671 mmHg 28%
    16:00 +29°C° 0.3 mm 2 mps 670 mmHg 33%
    17:00 +27°C° 0.3 mm 2 mps 670 mmHg 38%
    18:00 +26°C° 0.3 mm 1 mps 669 mmHg 44%
    19:00 +23°C° 0.7 mm 2 mps 669 mmHg 52%
    20:00 +20°C° 0.7 mm 2 mps 669 mmHg 59%
    21:00 +17°C° 0.7 mm 2 mps 668 mmHg 67%
    22:00 +16°C° 0.8 mm 1 mps 668 mmHg 69%
    23:00 +16°C° 0.8 mm 1 mps 668 mmHg 72%

    1 June, Thursday

    Time Temperature Precipitation Wind Pressure Humidity
    00:00 +15°C° 0.8 mm 1 mps 668 mmHg 74%
    01:00 +15°C° 0.5 mm 1 mps 668 mmHg 75%
    02:00 +14°C° 0.5 mm 1 mps 667 mmHg 77%
    03:00 +14°C° 0.5 mm 1 mps 667 mmHg 78%
    04:00 +15°C° 0.2 mm 1 mps 667 mmHg 75%
    05:00 +15°C° 0.2 mm 1 mps 668 mmHg 73%
    06:00 +16°C° 0.2 mm 1 mps 668 mmHg 70%
    07:00 +19°C° 0.1 mm 1 mps 668 mmHg 59%
    08:00 +22°C° 0.1 mm 1 mps 669 mmHg 48%
    09:00 +24°C° 0.1 mm 1 mps 669 mmHg 37%
    10:00 +25°C° 0 mm 1 mps 669 mmHg 33%
    11:00 +26°C° 0 mm 1 mps 669 mmHg 29%
    12:00 +28°C° 0 mm 2 mps 668 mmHg 25%
    13:00 +28°C° 0.1 mm 2 mps 668 mmHg 25%
    14:00 +28°C° 0.1 mm 2 mps 668 mmHg 25%
    15:00 +28°C° 0.1 mm 2 mps 668 mmHg 25%
    16:00 +27°C° 0.2 mm 2 mps 668 mmHg 31%
    17:00 +25°C° 0.2 mm 2 mps 667 mmHg 37%
    18:00 +24°C° 0.2 mm 1 mps 667 mmHg 43%
    19:00 +21°C° 0.4 mm 2 mps 667 mmHg 51%
    20:00 +18°C° 0.4 mm 2 mps 667 mmHg 60%
    21:00 +16°C° 0.4 mm 2 mps 667 mmHg 68%
    22:00 +15°C° 0.2 mm 1 mps 667 mmHg 70%
    23:00 +14°C° 0.2 mm 1 mps 667 mmHg 72%
    Show more